Change the Weather History Date:

Monday, April 29, 2013

  Actual Average (KTOL) Record (KTOL)
Temperature  
Mean Temperature 62 °F 54 °F  
Max Temperature 69 °F 66 °F 87 °F (1889)
Min Temperature 54 °F 43 °F 25 °F (1874)
Degree Days  
Heating Degree Days 4 11  
Month to date heating degree days 465  
Since 1 July heating degree days 5891  
Cooling Degree Days 0 0  
Month to date cooling degree days 0  
Year to date cooling degree days 0  
Growing Degree Days 12 (Base 50)    
Moisture  
Dew Point 52 °F    
Average Humidity 75    
Maximum Humidity 94    
Minimum Humidity 46    
Precipitation  
Precipitation 0.00 in 0.11 in 1.92 in (1956)
Month to date precipitation 3.09  
Year to date precipitation 9.69  
Snow  
Snow 0.00 in 0.00 in - ()
Month to date snowfall 1.3  
Since 1 July snowfall 37.5  
Snow Depth -    
Sea Level Pressure  
Sea Level Pressure 29.91 in    
Wind  
Wind Speed 2 mph (SW)    
Max Wind Speed 12 mph    
Max Gust Speed -    
Visibility 7 miles    
Events Fog , Rain    
T = Trace of Precipitation, MM = Missing Value Source: NWS Daily Summary

Daily Weather History Graph

Daily Weather History Graph

Search for Another Location

Airport or City:

Trip Planner

Search our weather history database for the weather conditions in past years. The results will help you decide how hot, cold, wet, or windy it might be!

Date:

Astronomy

Apr. 29, 2013 Rise Set
Actual Time 6:33 AM EDT 8:31 PM EDT
Civil Twilight 6:03 AM EDT 9:01 PM EDT
Nautical Twilight 5:26 AM EDT 9:38 PM EDT
Astronomical Twilight 4:46 AM EDT 10:18 PM EDT
Moon 12:00 AM EDT (4/29) 9:51 AM EDT (4/29)
Length of Visible Light 14h 57m
Length of Day
13h 57m
Waning Gibbous, 80% of the Moon is Illuminated
Apr 29
Waning Gibbous
May 2
Last Quarter
May 9
New
May 18
First Quarter
May 25
Full

Hourly Weather History & Observations

Time (EDT) Temp. Dew Point Humidity Pressure Visibility Wind Dir Wind Speed Gust Speed Precip Events Conditions
12:15 AM 54.5 °F 52.3 °F 92% 29.85 in 0.5 mi Calm Calm - N/A Fog Fog
12:35 AM 54.5 °F 52.7 °F 94% 29.85 in 0.2 mi Calm Calm - N/A Fog Fog
12:55 AM 54.5 °F 52.7 °F 94% 29.84 in 0.5 mi Calm Calm - N/A Fog Fog
1:15 AM 54.7 °F 52.9 °F 94% 29.85 in 0.5 mi Calm Calm - N/A Fog Fog
1:35 AM 54.5 °F 52.7 °F 94% 29.85 in 0.5 mi Calm Calm - N/A Fog Fog
1:55 AM 54.9 °F 53.1 °F 94% 29.85 in 0.2 mi Calm Calm - N/A Fog Fog
2:15 AM 55.0 °F 53.2 °F 94% 29.85 in 0.2 mi Calm Calm - N/A Rain Light Rain
2:35 AM 55.0 °F 53.1 °F 93% 29.86 in 0.5 mi Calm Calm - N/A   Heavy Drizzle
2:55 AM 55.4 °F 53.4 °F 93% 29.86 in 0.8 mi Calm Calm - N/A   Heavy Drizzle
3:15 AM 55.2 °F 53.2 °F 93% 29.86 in 1.5 mi Calm Calm - N/A   Overcast
3:35 AM 54.7 °F 52.9 °F 94% 29.87 in 1.0 mi West 5.8 mph - N/A   Overcast
3:55 AM 54.5 °F 52.7 °F 94% 29.87 in 0.5 mi West 4.6 mph - N/A Fog Fog
4:15 AM 54.5 °F 52.7 °F 94% 29.87 in 0.5 mi Calm Calm - N/A Fog Fog
4:35 AM 54.5 °F 52.7 °F 94% 29.87 in 0.8 mi Calm Calm - N/A   Overcast
4:55 AM 54.5 °F 52.7 °F 94% 29.87 in 1.8 mi WNW 3.5 mph - N/A   Overcast
5:15 AM 54.5 °F 52.3 °F 92% 29.88 in 3.0 mi West 3.5 mph - N/A   Overcast
5:35 AM 54.5 °F 52.3 °F 92% 29.89 in 3.0 mi Calm Calm - N/A   Overcast
5:55 AM 54.5 °F 52.7 °F 94% 29.89 in 3.0 mi Calm Calm - N/A   Overcast
6:15 AM 54.5 °F 52.3 °F 92% 29.90 in 3.0 mi Calm Calm - N/A   Overcast
6:35 AM 54.1 °F 52.2 °F 93% 29.90 in 3.0 mi Calm Calm - N/A   Overcast
6:55 AM 54.1 °F 52.2 °F 93% 29.91 in 3.0 mi SW 3.5 mph - N/A   Overcast
7:15 AM 54.5 °F 52.3 °F 92% 29.92 in 4.0 mi Calm Calm - N/A   Overcast
7:35 AM 54.5 °F 52.2 °F 92% 29.92 in 4.0 mi West 3.5 mph - N/A   Overcast
7:55 AM 54.5 °F 52.3 °F 92% 29.93 in 3.0 mi WSW 3.5 mph - N/A   Overcast
8:15 AM 54.7 °F 52.2 °F 91% 29.94 in 5.0 mi Calm Calm - N/A   Overcast
8:35 AM 55.0 °F 52.3 °F 91% 29.94 in 5.0 mi Calm Calm - N/A   Overcast
8:55 AM 55.4 °F 52.7 °F 91% 29.94 in 5.0 mi Calm Calm - N/A   Overcast
9:15 AM 55.6 °F 52.7 °F 90% 29.95 in 5.0 mi WSW 3.5 mph - N/A   Overcast
9:35 AM 55.9 °F 52.7 °F 89% 29.95 in 5.0 mi Calm Calm - N/A   Overcast
9:55 AM 57.2 °F 53.2 °F 87% 29.95 in 7.0 mi West 4.6 mph - N/A   Overcast
10:15 AM 59.0 °F 53.8 °F 83% 29.95 in 7.0 mi West 3.5 mph - N/A   Overcast
10:35 AM 59.4 °F 53.8 °F 82% 29.95 in 10.0 mi Calm Calm - N/A   Overcast
10:55 AM 59.9 °F 53.8 °F 80% 29.95 in 10.0 mi NW 3.5 mph - N/A   Overcast
11:15 AM 61.7 °F 53.8 °F 75% 29.95 in 10.0 mi NW 4.6 mph - N/A   Overcast
11:35 AM 63.5 °F 53.6 °F 70% 29.95 in 10.0 mi West 4.6 mph - N/A   Overcast
11:55 AM 62.2 °F 52.2 °F 70% 29.95 in 10.0 mi Calm Calm - N/A   Overcast
12:15 PM 63.7 °F 52.3 °F 67% 29.95 in 10.0 mi West 3.5 mph - N/A   Mostly Cloudy
12:35 PM 64.2 °F 50.7 °F 61% 29.94 in 10.0 mi WSW 5.8 mph - N/A   Mostly Cloudy
12:55 PM 64.0 °F 51.1 °F 63% 29.94 in 10.0 mi SW 4.6 mph - N/A   Overcast
1:15 PM 65.5 °F 50.9 °F 59% 29.94 in 10.0 mi WSW 3.5 mph - N/A   Mostly Cloudy
1:35 PM 64.4 °F 51.1 °F 62% 29.94 in 10.0 mi Calm Calm - N/A   Mostly Cloudy
1:55 PM 66.6 °F 50.4 °F 56% 29.94 in 10.0 mi Calm Calm - N/A   Overcast
2:15 PM 64.4 °F 50.0 °F 59% 29.93 in 10.0 mi Calm Calm - N/A   Overcast
2:35 PM 66.2 °F 50.0 °F 56% 29.93 in 10.0 mi Calm Calm - N/A   Overcast
2:55 PM 66.2 °F 48.2 °F 52% 29.93 in 10.0 mi Calm Calm - N/A   Overcast
3:15 PM 66.2 °F 50.0 °F 56% 29.93 in 10.0 mi SSW 4.6 mph - N/A   Overcast
3:35 PM 68.0 °F 51.8 °F 56% 29.92 in 10.0 mi South 5.8 mph - N/A   Overcast
3:55 PM 68.0 °F 50.0 °F 52% 29.92 in 10.0 mi Calm Calm - N/A   Scattered Clouds
4:15 PM 69.8 °F 50.0 °F 49% 29.91 in 10.0 mi SW 8.1 mph - N/A   Scattered Clouds
4:35 PM 68.0 °F 50.0 °F 52% 29.91 in 10.0 mi Calm Calm - N/A   Scattered Clouds
4:55 PM 68.0 °F 50.0 °F 52% 29.91 in 10.0 mi West 4.6 mph - N/A   Mostly Cloudy
5:15 PM 69.8 °F 50.0 °F 49% 29.91 in 10.0 mi SSW 6.9 mph - N/A   Overcast
5:35 PM 69.8 °F 50.0 °F 49% 29.91 in 10.0 mi West 4.6 mph - N/A   Mostly Cloudy
5:55 PM 69.8 °F 48.2 °F 46% 29.91 in 10.0 mi SW 4.6 mph - N/A   Scattered Clouds
6:15 PM 68.0 °F 50.0 °F 52% 29.92 in 10.0 mi West 6.9 mph - N/A   Clear
6:35 PM 68.0 °F 48.2 °F 49% 29.91 in 10.0 mi WSW 3.5 mph - N/A   Clear
6:55 PM 68.0 °F 50.0 °F 52% 29.91 in 10.0 mi WSW 6.9 mph - N/A   Clear
7:15 PM 68.0 °F 50.0 °F 52% 29.91 in 10.0 mi WSW 6.9 mph - N/A   Clear
7:35 PM 68.0 °F 50.0 °F 52% 29.91 in 10.0 mi SSW 11.5 mph - N/A   Clear
7:55 PM 66.2 °F 51.8 °F 60% 29.92 in 10.0 mi SSW 6.9 mph - N/A   Mostly Cloudy
8:15 PM 64.4 °F 53.6 °F 68% 29.93 in 10.0 mi SSW 6.9 mph - N/A   Mostly Cloudy
8:35 PM 64.4 °F 51.8 °F 64% 29.93 in 10.0 mi SSW 4.6 mph - N/A   Scattered Clouds
8:55 PM 62.6 °F 51.8 °F 68% 29.93 in 10.0 mi South 3.5 mph - N/A   Clear
9:15 PM 62.6 °F 51.8 °F 68% 29.93 in 10.0 mi South 3.5 mph - N/A   Clear
9:35 PM 60.8 °F 53.6 °F 77% 29.93 in 10.0 mi South 3.5 mph - N/A   Clear
9:55 PM 60.8 °F 51.8 °F 72% 29.94 in 10.0 mi South 3.5 mph - N/A   Clear
10:15 PM 60.8 °F 51.8 °F 72% 29.95 in 10.0 mi South 3.5 mph - N/A   Clear
10:35 PM 60.8 °F 51.8 °F 72% 29.95 in 10.0 mi Calm Calm - N/A   Clear
10:55 PM 60.8 °F 51.8 °F 72% 29.95 in 10.0 mi South 3.5 mph - N/A   Clear
11:35 PM 59.0 °F 51.8 °F 77% 29.96 in 10.0 mi South 4.6 mph - N/A   Clear
11:55 PM 59.0 °F 51.8 °F 77% 29.95 in 10.0 mi South 5.8 mph - N/A   Scattered Clouds